Amateur Radio Satellites - All Passes

Search period start: 25 May 2013 15:29
Search period end: 26 May 2013 15:29
Location: Limerick, 52.6800°N, 8.6400°W

Satellite Date Start Highest point End Downlink Frequencies (MHz)
Time Altitude Azimuth
TMSAT-1 25 May 15:29:26 15:34:12 35° 62° (ENE) 15:38:59 436.925 FM
Uosat F 25 May 15:34:28 15:39:23 61° 69° (ENE) 15:44:20 435.120 FM
AO-Echo 25 May 15:39:37 15:44:23 64° 258° (WSW) 15:49:05 ?
Sapphire 25 May 15:47:29 15:52:55 64° 46° (NE) 15:58:18 437.095 MHz 1200 baud AX-25 AFSK
Gurwin Techsat 1B 25 May 15:52:17 15:57:33 70° 70° (ENE) 16:02:52 435.225 FM
Oscar 19 25 May 15:59:16 16:02:48 18° 272° (W) 16:06:21 437.125 CW, 437.150 USB
UOSAT-12 25 May 15:59:36 16:02:52 19° 356° (N) 16:06:09 437.025 FM, 437.400 FM
Uribyol 2 25 May 16:01:22 16:05:03 19° 271° (W) 16:08:45 436.500 FM
RS-15 25 May 16:33:25 16:44:23 45° 113° (ESE) 16:54:55 29.354 - 29.394 USB, Beacon 29.352 USB
SO-50 25 May 16:36:28 16:41:05 71° 43° (NE) 16:45:35 436.795 FM
PCSat 25 May 16:57:54 17:03:06 47° 241° (WSW) 17:08:17 145.825 MHz
TMSAT-1 25 May 17:08:59 17:14:04 45° 262° (W) 17:19:10 436.925 FM
AO-7 25 May 17:13:16 17:21:36 88° 68° (ENE) 17:30:00 29.400 - 29.500 MHz
Uosat F 25 May 17:14:37 17:18:37 24° 268° (W) 17:22:38 435.120 FM
JAS-1B 25 May 17:16:25 17:19:41 13° 38° (NE) 17:22:46 435.800 - 435.900 CW/SSB
Sapphire 25 May 17:31:22 17:36:02 30° 247° (WSW) 17:40:40 437.095 MHz 1200 baud AX-25 AFSK
Gurwin Techsat 1B 25 May 17:33:59 17:38:04 22° 270° (W) 17:42:11 435.225 FM
UOSAT-12 25 May 17:40:42 17:44:29 24° 20° (NNE) 17:48:17 437.025 FM, 437.400 FM
SO-50 25 May 18:17:43 18:21:18 23° 244° (WSW) 18:24:49 436.795 FM
Hamsat 25 May 18:33:49 18:37:16 25° 62° (ENE) 18:40:45 145.90 MHz
RS-15 25 May 18:44:18 18:56:14 77° 318° (NW) 19:07:39 29.354 - 29.394 USB, Beacon 29.352 USB
STRAND 1 25 May 18:46:11 18:49:17 16° 87° (E) 18:52:23 ?
JAS-1B 25 May 19:00:54 19:08:41 42° 60° (ENE) 19:15:19 435.800 - 435.900 CW/SSB
SO-67 25 May 19:04:00 19:06:10 15° 60° (ENE) 19:08:19 435.3500 MHz FM
AO-7 25 May 19:08:47 19:15:28 27° 270° (W) 19:22:14 29.400 - 29.500 MHz
UOSAT-12 25 May 19:20:49 19:25:25 69° 43° (NE) 19:30:01 437.025 FM, 437.400 FM
HO-68 25 May 19:56:40 20:02:09 25° 46° (NE) 20:07:39 435.675 MHz FM
Hamsat 25 May 20:09:03 20:13:08 47° 261° (W) 20:17:17 145.90 MHz
JAS-2 25 May 20:15:35 20:21:31 24° 49° (NE) 20:27:16 435.800 - 435.900 CW/SSB, 435.910 FM
STRAND 1 25 May 20:24:05 20:29:16 89° 107° (ESE) 20:34:26 ?
SO-67 25 May 20:35:42 20:39:14 61° 259° (W) 20:42:48 435.3500 MHz FM
Oscar 11 25 May 20:41:11 20:43:10 13° 53° (NE) 20:45:09 145.825 FM, Beacon 2401.500 USB
JAS-1B 25 May 20:50:27 20:59:08 61° 258° (WSW) 21:06:26 435.800 - 435.900 CW/SSB
RS-15 25 May 20:59:21 21:10:31 47° 349° (N) 21:21:12 29.354 - 29.394 USB, Beacon 29.352 USB
UOSAT-12 25 May 21:01:33 21:05:14 24° 243° (WSW) 21:08:55 437.025 FM, 437.400 FM
OPAL 25 May 21:11:28 21:15:10 20° 51° (NE) 21:18:50 ?
HO-68 25 May 21:41:49 21:48:57 81° 68° (ENE) 21:56:08 435.675 MHz FM
JAS-2 25 May 21:57:39 22:05:29 74° 70° (ENE) 22:13:09 435.800 - 435.900 CW/SSB, 435.910 FM
STRAND 1 25 May 22:04:16 22:07:52 20° 307° (NW) 22:11:28 ?
Oscar 11 25 May 22:14:21 22:18:40 74° 73° (ENE) 22:23:02 145.825 FM, Beacon 2401.500 USB
KITSAT 1 25 May 22:21:26 22:27:29 24° 105° (ESE) 22:33:34 435.175 FM
JAS-1B 25 May 22:46:34 22:51:00 15° 278° (W) 22:55:09 435.800 - 435.900 CW/SSB
OPAL 25 May 22:48:17 22:53:29 89° 251° (WSW) 22:58:39 ?
RS-15 25 May 23:14:27 23:25:36 53° 22° (NNE) 23:36:17 29.354 - 29.394 USB, Beacon 29.352 USB
HO-68 25 May 23:31:39 23:37:27 26° 270° (W) 23:43:17 435.675 MHz FM
JAS-2 25 May 23:44:09 23:51:03 33° 270° (W) 23:57:53 435.800 - 435.900 CW/SSB, 435.910 FM
Oscar 11 25 May 23:52:49 23:55:27 16° 272° (W) 23:58:05 145.825 FM, Beacon 2401.500 USB
KITSAT 1 26 May 00:13:43 00:21:47 82° 127° (SE) 00:29:56 435.175 FM
OPAL 26 May 00:29:55 00:33:06 16° 270° (W) 00:36:16 ?
Oscar 10/S400 26 May 01:20:09 06:23:23 29° 94° (E) 08:47:10 145.825 - 145.975 CW/USB, Beacon 145.810 USB
MaSat-1 26 May 01:24:55 01:30:13 26° 110° (ESE) 01:34:44 437.345 MHz
RS-15 26 May 01:27:41 01:38:57 81° 232° (SW) 01:49:50 29.354 - 29.394 USB, Beacon 29.352 USB
AO-40 26 May 01:39:38 03:35:24 15° 132° (SE) 04:52:59 Beacon 2401.320
KITSAT 1 26 May 02:10:18 02:17:58 44° 333° (NNW) 02:25:41 435.175 FM
Oscar 19 26 May 02:24:05 02:27:46 19° 88° (E) 02:31:25 437.125 CW, 437.150 USB
Uribyol 2 26 May 02:27:26 02:31:02 18° 88° (E) 02:34:36 436.500 FM
ISS 26 May 02:53:15 02:55:40 19° 145° (SE) 02:58:04 145.800 FM
Oscar 16 26 May 03:03:20 03:08:18 43° 98° (E) 03:13:12 437.025 USB, Beacon 2401.1428
MaSat-1 26 May 03:05:35 03:12:07 76° 305° (NW) 03:17:13 437.345 MHz
AO-27 26 May 03:19:53 03:24:55 45° 98° (E) 03:29:55 436.795 MHz FM
ITAMSAT 1 26 May 03:25:41 03:30:46 48° 99° (E) 03:35:50 435.822 SSB
Uosat F 26 May 03:38:16 03:40:09 12° 84° (E) 03:42:01 435.120 FM
AO-Echo 26 May 03:40:57 03:44:56 26° 93° (E) 03:48:58 ?
RS-15 26 May 03:41:02 03:49:34 27° 258° (WSW) 03:57:58 29.354 - 29.394 USB, Beacon 29.352 USB
Oscar 19 26 May 04:02:33 04:07:45 77° 288° (WNW) 04:12:53 437.125 CW, 437.150 USB
Gurwin Techsat 1B 26 May 04:03:22 04:06:59 18° 87° (E) 04:10:35 435.225 FM
Uribyol 2 26 May 04:05:55 04:11:12 82° 288° (WNW) 04:16:26 436.500 FM
KITSAT 1 26 May 04:08:24 04:15:32 32° 1° (N) 04:22:39 435.175 FM
ISS 26 May 04:28:39 04:31:55 55° 164° (SSE) 04:35:12 145.800 FM
Oscar 16 26 May 04:42:55 04:47:37 35° 298° (WNW) 04:52:16 437.025 USB, Beacon 2401.1428
MaSat-1 26 May 04:50:14 04:54:48 23° 323° (NW) 04:58:37 437.345 MHz
Saudisat 1A 26 May 04:50:23 04:51:46 11° 109° (ESE) 04:53:08 436.775 MHz
AO-27 26 May 04:59:39 05:04:23 35° 298° (WNW) 05:09:05 436.795 MHz FM
ITAMSAT 1 26 May 05:05:31 05:10:09 33° 299° (WNW) 05:14:46 435.822 SSB
AO-7 26 May 05:09:00 05:14:58 21° 86° (E) 05:20:55 29.400 - 29.500 MHz
Uosat F 26 May 05:14:51 05:19:54 71° 104° (ESE) 05:24:56 435.120 FM
TMSAT-1 26 May 05:18:27 05:23:37 48° 99° (E) 05:28:44 436.925 FM
AO-Echo 26 May 05:19:25 05:24:01 51° 292° (WNW) 05:28:42 ?
Gurwin Techsat 1B 26 May 05:42:19 05:47:41 84° 287° (WNW) 05:53:00 435.225 FM
Oscar 19 26 May 05:43:09 05:46:21 17° 309° (NW) 05:49:32 437.125 CW, 437.150 USB
Uribyol 2 26 May 05:46:32 05:49:59 18° 308° (NW) 05:53:26 436.500 FM
ISS 26 May 06:05:11 06:08:32 74° 183° (S) 06:11:52 145.800 FM
KITSAT 1 26 May 06:05:14 06:13:01 46° 30° (NNE) 06:20:47 435.175 FM
STRAND 1 26 May 06:07:32 06:12:18 41° 64° (ENE) 06:17:06 ?
Saudisat 1A 26 May 06:26:03 06:30:35 62° 128° (SE) 06:35:09 436.775 MHz
Sapphire 26 May 06:37:56 06:40:56 15° 105° (ESE) 06:43:56 437.095 MHz 1200 baud AX-25 AFSK
MaSat-1 26 May 06:38:19 06:38:33 10° 347° (NNW) 06:38:47 437.345 MHz
Uosat F 26 May 06:54:24 06:58:17 23° 304° (WNW) 07:02:11 435.120 FM
TMSAT-1 26 May 06:58:42 07:03:26 34° 299° (WNW) 07:08:10 436.925 FM
AO-7 26 May 07:00:46 07:09:12 77° 108° (ESE) 07:17:35 29.400 - 29.500 MHz
AO-Echo 26 May 07:00:59 07:01:50 10° 312° (NW) 07:02:42 ?
Gurwin Techsat 1B 26 May 07:23:23 07:26:58 19° 308° (NW) 07:30:32 435.225 FM
ISS 26 May 07:41:55 07:45:02 37° 204° (SSW) 07:48:10 145.800 FM
PCSat 26 May 07:45:14 07:50:24 47° 119° (ESE) 07:55:35 145.825 MHz
STRAND 1 26 May 07:46:55 07:51:36 36° 264° (W) 07:56:19 ?
Hamsat 26 May 07:49:54 07:53:21 22° 91° (E) 07:56:47 145.90 MHz
KITSAT 1 26 May 08:00:56 08:09:04 76° 235° (SW) 08:17:09 435.175 FM
Saudisat 1A 26 May 08:06:21 08:10:35 35° 330° (NNW) 08:14:51 436.775 MHz
Sapphire 26 May 08:18:05 08:23:29 74° 125° (SE) 08:28:55 437.095 MHz 1200 baud AX-25 AFSK
MaSat-1 26 May 08:22:14 08:22:46 10° 14° (NNE) 08:23:17 437.345 MHz
JAS-1B 26 May 08:30:10 08:35:13 26° 90° (E) 08:39:56 435.800 - 435.900 CW/SSB
SO-50 26 May 08:37:59 08:42:05 29° 119° (ESE) 08:46:09 436.795 FM
AO-7 26 May 08:54:04 09:01:26 37° 311° (NW) 09:08:49 29.400 - 29.500 MHz
ISS 26 May 09:20:22 09:21:03 11° 222° (SW) 09:21:44 145.800 FM
Hamsat 26 May 09:25:28 09:29:43 52° 290° (WNW) 09:33:58 145.90 MHz
PCSat 26 May 09:28:44 09:33:55 45° 320° (NW) 09:39:09 145.825 MHz
SO-67 26 May 09:30:01 09:33:38 78° 103° (ESE) 09:37:13 435.3500 MHz FM
Saudisat 1A 26 May 09:48:10 09:51:31 19° 353° (N) 09:54:52 436.775 MHz
KITSAT 1 26 May 09:57:29 10:03:13 22° 257° (WSW) 10:08:57 435.175 FM
Sapphire 26 May 10:02:32 10:07:25 33° 327° (NNW) 10:12:20 437.095 MHz 1200 baud AX-25 AFSK
MaSat-1 26 May 10:02:55 10:06:20 29° 41° (NE) 10:09:06 437.345 MHz
SO-50 26 May 10:17:46 10:22:29 61° 319° (NW) 10:27:09 436.795 FM
JAS-1B 26 May 10:20:27 10:26:33 60° 294° (WNW) 10:32:07 435.800 - 435.900 CW/SSB
JAS-2 26 May 10:47:07 10:53:35 39° 93° (E) 10:59:19 435.800 - 435.900 CW/SSB, 435.910 FM
AO-7 26 May 10:47:37 10:51:57 15° 336° (NNW) 10:56:17 29.400 - 29.500 MHz
HO-68 26 May 10:50:35 10:57:30 48° 100° (E) 11:04:23 435.675 MHz FM
OPAL 26 May 10:53:54 10:56:33 14° 88° (E) 10:59:09 ?
SO-67 26 May 11:04:55 11:06:36 13° 302° (WNW) 11:08:16 435.3500 MHz FM
PCSat 26 May 11:14:42 11:18:43 20° 345° (NNW) 11:22:44 145.825 MHz
UOSAT-12 26 May 11:18:23 11:22:04 25° 117° (ESE) 11:25:48 437.025 FM, 437.400 FM
Saudisat 1A 26 May 11:29:00 11:32:42 23° 17° (NNE) 11:36:21 436.775 MHz
Oscar 11 26 May 11:32:33 11:36:55 67° 102° (ESE) 11:41:17 145.825 FM, Beacon 2401.500 USB
MaSat-1 26 May 11:45:17 11:48:15 26° 250° (WSW) 11:50:43 437.345 MHz
Sapphire 26 May 11:48:46 11:52:30 18° 353° (N) 11:56:15 437.095 MHz 1200 baud AX-25 AFSK
SO-50 26 May 12:00:09 12:03:58 24° 342° (NNW) 12:07:44 436.795 FM
Oscar 19 26 May 12:11:36 12:13:15 12° 45° (NE) 12:14:53 437.125 CW, 437.150 USB
JAS-1B 26 May 12:12:32 12:15:53 15° 319° (NW) 12:19:05 435.800 - 435.900 CW/SSB
Uribyol 2 26 May 12:15:55 12:17:30 11° 45° (NE) 12:19:05 436.500 FM
OPAL 26 May 12:31:13 12:36:16 83° 108° (ESE) 12:41:15 ?
JAS-2 26 May 12:32:06 12:38:54 52° 297° (WNW) 12:44:53 435.800 - 435.900 CW/SSB, 435.910 FM
HO-68 26 May 12:38:28 12:45:15 48° 301° (WNW) 12:52:01 435.675 MHz FM
AO-7 26 May 12:39:13 12:41:22 11° 4° (N) 12:43:31 29.400 - 29.500 MHz
Oscar 16 26 May 12:48:43 12:52:40 23° 56° (NE) 12:56:39 437.025 USB, Beacon 2401.1428
UOSAT-12 26 May 12:57:24 13:01:55 66° 318° (NW) 13:06:29 437.025 FM, 437.400 FM
PCSat 26 May 13:00:17 13:04:08 19° 11° (N) 13:08:00 145.825 MHz
AO-27 26 May 13:06:16 13:10:19 24° 56° (NE) 13:14:24 436.795 MHz FM
Saudisat 1A 26 May 13:08:43 13:13:16 59° 40° (NE) 13:17:45 436.775 MHz
Oscar 11 26 May 13:09:36 13:12:45 20° 302° (WNW) 13:15:54 145.825 FM, Beacon 2401.500 USB
ITAMSAT 1 26 May 13:11:49 13:15:59 25° 57° (ENE) 13:20:11 435.822 SSB
AO-Echo 26 May 13:24:45 13:26:37 12° 50° (NE) 13:28:28 ?
Sapphire 26 May 13:33:43 13:37:54 22° 19° (NNE) 13:42:04 437.095 MHz 1200 baud AX-25 AFSK
SO-50 26 May 13:42:40 13:46:04 19° 6° (N) 13:49:25 436.795 FM
Oscar 19 26 May 13:46:29 13:51:29 49° 66° (ENE) 13:56:30 437.125 CW, 437.150 USB
Uribyol 2 26 May 13:50:53 13:55:51 48° 66° (ENE) 14:00:51 436.500 FM
Gurwin Techsat 1B 26 May 13:54:34 13:56:17 12° 45° (NE) 13:58:00 435.225 FM
OPAL 26 May 14:10:58 14:14:38 21° 308° (NW) 14:18:16 ?
JAS-2 26 May 14:18:23 14:22:20 16° 321° (NW) 14:26:04 435.800 - 435.900 CW/SSB, 435.910 FM
AO-7 26 May 14:25:37 14:30:59 19° 31° (NNE) 14:36:21 29.400 - 29.500 MHz
Oscar 16 26 May 14:26:21 14:31:33 76° 256° (WSW) 14:36:48 437.025 USB, Beacon 2401.1428
HO-68 26 May 14:27:25 14:31:22 16° 324° (NW) 14:35:20 435.675 MHz FM
UOSAT-12 26 May 14:39:10 14:42:53 24° 341° (NNW) 14:46:37 437.025 FM, 437.400 FM
PCSat 26 May 14:44:01 14:49:06 38° 36° (NE) 14:54:09 145.825 MHz
AO-27 26 May 14:44:14 14:49:25 71° 256° (WSW) 14:54:39 436.795 MHz FM
Saudisat 1A 26 May 14:48:49 14:52:45 29° 241° (WSW) 14:56:36 436.775 MHz
ITAMSAT 1 26 May 14:49:58 14:55:07 66° 257° (WSW) 15:00:20 435.822 SSB
Uosat F 26 May 14:56:22 15:00:45 32° 61° (ENE) 15:05:10 435.120 FM
AO-Echo 26 May 14:59:51 15:04:34 61° 70° (ENE) 15:09:13 ?
TMSAT-1 26 May 15:06:58 15:11:13 25° 57° (ENE) 15:15:29 436.925 FM
Sapphire 26 May 15:17:12 15:22:33 53° 43° (NE) 15:27:51 437.095 MHz 1200 baud AX-25 AFSK

Developed and maintained by Chris Peat, Heavens-Above GmbH. Please read the updated FAQ before sending e-mail. Imprint. DLR
